Location: *
(40.4000°N, 15.1200°E)
Time: 08:33:53
(UTC+00:00)

Resurs 1-3 - Pass Details

Date: 09 April 2020
Orbit: 630 x 632 km, 97.9° (Epoch: 29 May)

Event Time Altitude Azimuth Distance (km) Brightness Sun altitude
Exits shadow 18:41:32 20° 123° (ESE) 1,456 4.8 -13.3°
Maximum altitude 18:43:55 35° 71° (ENE) 1,023 4.3 -13.8°
Drops below altitude 10° 18:47:55 10° 5° (N) 2,021 6.4 -14.5°
Sets 18:50:15 0° 357° (N) 2,934 7.4 -14.9°
